KD0RXN-4 Weather Reports


time (UTC)temp
F
wind
direction
speed
knots
gust
knots
rain 1hr
in
rain 24hr
in
rain mn
in
humidity
%
barometer
mb
20260505015531 73 203 0.0 3.5 0.00 0.00 0.00 56 1002.5
20260505015056 74 229 0.0 1.7 0.00 0.00 0.00 56 1002.6
20260505014520 74 212 0.0 1.7 0.00 0.00 0.00 56 1002.6
20260505014026 74 204 0.0 0.9 0.00 0.00 0.00 55 1002.7
20260505013531 74 218 0.0 0.9 0.00 0.00 0.00 55 1002.6
20260505013036 74 220 0.0 0.9 0.00 0.00 0.00 54 1002.3
20260505012521 74 224 0.0 2.6 0.00 0.00 0.00 54 1002.3
20260505012027 75 214 0.0 5.2 0.00 0.00 0.00 54 1002.3
20260505011532 75 225 0.0 7.0 0.00 0.00 0.00 53 1002.3
20260505011020 75 188 0.0 7.0 0.00 0.00 0.00 52 1002.2
20260505010524 75 184 0.0 2.6 0.00 0.00 0.00 52 1002.2
20260505010029 76 246 0.0 0.9 0.00 0.00 0.00 52 1002.2
20260505005555 76 213 0.0 2.6 0.00 0.00 0.00 51 1002.0
20260505005018 76 192 0.0 5.2 0.00 0.00 0.00 52 1002.0
20260505004524 76 192 0.9 5.2 0.00 0.00 0.00 52 1002.0
20260505004029 76 211 0.0 4.3 0.00 0.00 0.00 52 1001.9
20260505003535 76 215 0.0 1.7 0.00 0.00 0.00 52 1001.8
20260505003020 76 203 0.0 2.6 0.00 0.00 0.00 51 1001.8
20260505002525 77 225 0.0 2.6 0.00 0.00 0.00 50 1001.8
20260505002031 77 211 0.0 1.7 0.00 0.00 0.00 50 1001.9
20260505001520 77 211 0.9 6.1 0.00 0.00 0.00 49 1001.8
20260505001044 77 198 0.0 6.1 0.00 0.00 0.00 49 1001.9
20260505000549 78 198 0.9 2.6 0.00 0.00 0.00 49 1001.9
20260505000033 78 190 0.0 2.6 0.00 0.00 0.00 49 1001.9
20260504235558 78 199 0.0 1.7 0.00 0.00 0.00 49 1002.0
20260504235022 79 178 0.0 3.5 0.00 0.00 0.00 48 1001.9
20260504234527 79 232 0.0 7.0 0.00 0.00 0.00 48 1001.9
20260504234032 79 207 1.7 7.0 0.00 0.00 0.00 47 1001.9
20260504233518 79 186 0.9 6.1 0.00 0.00 0.00 46 1001.9
20260504233044 79 220 0.9 6.1 0.00 0.00 0.00 46 1001.9
20260504232526 80 221 1.7 6.1 0.00 0.00 0.00 46 1002.0
20260504232031 80 240 0.9 7.8 0.00 0.00 0.00 46 1002.0
20260504231536 80 200 0.9 8.7 0.00 0.00 0.00 46 1002.0
20260504231025 80 200 0.9 7.0 0.00 0.00 0.00 47 1002.0
20260504230530 80 254 0.0 7.8 0.00 0.00 0.00 47 1002.1
20260504230036 80 194 0.9 7.8 0.00 0.00 0.00 47 1002.0
20260504225521 80 203 0.9 5.2 0.00 0.00 0.00 47 1002.0
20260504225026 80 161 0.0 7.8 0.00 0.00 0.00 47 1002.0
20260504224532 80 275 0.9 7.8 0.00 0.00 0.00 46 1002.1
20260504224017 80 212 0.0 6.1 0.00 0.00 0.00 46 1002.0
20260504223522 80 197 0.9 9.6 0.00 0.00 0.00 47 1002.1
20260504223028 80 213 2.6 9.6 0.00 0.00 0.00 46 1002.1
20260504222534 80 200 0.9 4.3 0.00 0.00 0.00 46 1002.1
20260504222021 80 177 0.9 11.3 0.00 0.00 0.00 45 1002.3
20260504221525 80 218 2.6 11.3 0.00 0.00 0.00 46 1002.2
20260504221050 80 231 2.6 10.4 0.00 0.00 0.00 46 1002.2
20260504220534 80 213 1.7 10.4 0.00 0.00 0.00 46 1002.2
20260504220018 80 259 0.9 8.7 0.00 0.00 0.00 47 1002.2
20260504215523 80 211 0.9 5.2 0.00 0.00 0.00 47 1002.3
20260504215048 80 200 0.9 11.3 0.00 0.00 0.00 47 1002.3
20260504214552 79 229 0.9 6.1 0.00 0.00 0.00 47 1002.3
20260504214017 79 188 0.9 6.1 0.00 0.00 0.00 47 1002.3
20260504213523 79 284 0.9 8.7 0.00 0.00 0.00 47 1002.3
20260504213028 79 202 0.9 8.7 0.00 0.00 0.00 47 1002.3
20260504212533 79 232 0.9 12.2 0.00 0.00 0.00 47 1002.3
20260504212018 79 202 1.7 12.2 0.00 0.00 0.00 47 1002.5
20260504211528 80 188 2.6 12.2 0.00 0.00 0.00 47 1002.5
20260504211032 80 186 0.9 8.7 0.00 0.00 0.00 46 1002.6
20260504210518 80 189 1.7 11.3 0.00 0.00 0.00 45 1002.5
20260504210043 81 201 3.5 11.3 0.00 0.00 0.00 45 1002.5
20260504205527 81 208 1.7 13.9 0.00 0.00 0.00 46 1002.5
20260504205032 80 202 2.6 13.9 0.00 0.00 0.00 45 1002.6
20260504204517 80 246 1.7 9.6 0.00 0.00 0.00 45 1002.7
20260504204023 81 175 1.7 5.2 0.00 0.00 0.00 45 1002.8
20260504203528 80 239 0.9 10.4 0.00 0.00 0.00 45 1002.7
20260504203033 81 193 3.5 10.4 0.00 0.00 0.00 43 1002.8
20260504202518 81 234 2.6 8.7 0.00 0.00 0.00 44 1003.0
20260504202028 80 265 1.7 11.3 0.00 0.00 0.00 45 1003.0
20260504201533 81 227 2.6 11.3 0.00 0.00 0.00 44 1003.1
20260504201037 80 217 1.7 8.7 0.00 0.00 0.00 45 1003.0
20260504200522 81 232 0.9 13.9 0.00 0.00 0.00 44 1003.1
20260504200048 81 212 2.6 9.6 0.00 0.00 0.00 45 1003.2
20260504195531 80 228 0.9 8.7 0.00 0.00 0.00 45 1003.4
20260504195035 80 201 1.7 7.0 0.00 0.00 0.00 45 1003.4
20260504194519 80 200 0.9 10.4 0.00 0.00 0.00 45 1003.3
20260504194044 80 200 1.7 10.4 0.00 0.00 0.00 45 1003.6
20260504193530 80 156 1.7 9.6 0.00 0.00 0.00 45 1003.5
20260504193035 80 219 0.9 8.7 0.00 0.00 0.00 45 1003.5
20260504192520 80 194 1.7 13.0 0.00 0.00 0.00 45 1003.6
20260504192029 80 275 2.6 13.0 0.00 0.00 0.00 45 1003.7
20260504191533 80 231 1.7 12.2 0.00 0.00 0.00 45 1003.7
20260504191018 80 226 2.6 9.6 0.00 0.00 0.00 45 1003.6
20260504190543 80 229 0.9 10.4 0.00 0.00 0.00 44 1003.7
20260504190047 80 200 0.9 10.4 0.00 0.00 0.00 45 1003.7
20260504185531 80 245 0.9 6.1 0.00 0.00 0.00 46 1003.7
20260504185057 79 206 0.9 7.8 0.00 0.00 0.00 46 1003.8
20260504184520 79 207 0.9 9.6 0.00 0.00 0.00 45 1003.9
20260504184045 79 207 1.7 11.3 0.00 0.00 0.00 44 1003.9
20260504183528 79 257 2.6 12.2 0.00 0.00 0.00 45 1003.8
20260504183036 80 266 1.7 12.2 0.00 0.00 0.00 45 1003.9
20260504182520 80 246 0.9 9.6 0.00 0.00 0.00 46 1003.9
20260504182026 79 259 0.9 11.3 0.00 0.00 0.00 45 1003.9
20260504181529 79 230 1.7 11.3 0.00 0.00 0.00 45 1004.0
20260504181018 80 215 1.7 8.7 0.00 0.00 0.00 45 1004.0
20260504180524 80 238 0.0 2.6 0.00 0.00 0.00 46 1003.9
20260504180029 80 200 0.0 11.3 0.00 0.00 0.00 46 1004.0
20260504175534 79 200 0.9 11.3 0.00 0.00 0.00 46 1004.0
20260504175019 78 229 1.7 13.0 0.00 0.00 0.00 46 1004.0
20260504174545 78 244 2.6 13.0 0.00 0.00 0.00 46 1004.0
20260504174049 78 258 0.9 12.2 0.00 0.00 0.00 46 1004.0
20260504173532 78 199 1.7 12.2 0.00 0.00 0.00 46 1004.0
20260504173018 78 252 0.9 13.9 0.00 0.00 0.00 47 1004.0
20260504172522 77 244 1.7 13.9 0.00 0.00 0.00 47 1004.0
20260504172027 77 255 2.6 12.2 0.00 0.00 0.00 47 1004.0
20260504171552 77 216 2.6 9.6 0.00 0.00 0.00 47 1003.9
20260504171019 77 264 1.7 13.0 0.00 0.00 0.00 47 1004.0
20260504170544 77 207 3.5 13.0 0.00 0.00 0.00 46 1003.9
20260504151031 73 255 4.3 15.6 0.00 0.00 0.00 48 1004.4
20260504150556 72 257 2.6 12.2 0.00 0.00 0.00 49 1004.4
20260504141033 69 218 1.7 8.7 0.00 0.00 0.00 53 1005.3
20260504140519 68 201 2.6 8.7 0.00 0.00 0.00 54 1005.3
20260504130523 66 207 1.7 8.7 0.00 0.00 0.00 57 1005.7
20260504110521 64 227 0.9 7.0 0.00 0.00 0.00 55 1005.9
20260504100536 65 215 0.0 2.6 0.00 0.00 0.00 55 1006.5
20260504081529 66 242 0.9 3.5 0.00 0.00 0.00 54 1006.6
20260504081054 66 224 0.9 3.5 0.00 0.00 0.00 54 1006.6
20260504080519 66 234 0.0 3.5 0.00 0.00 0.00 54 1006.6
20260504050539 68 193 0.0 1.7 0.00 0.00 0.00 53 1008.0
20260504050023 68 178 0.0 1.7 0.00 0.00 0.00 52 1008.0
20260504045547 68 235 0.0 1.7 0.00 0.00 0.00 52 1008.0
20260504045031 68 221 0.0 1.7 0.00 0.00 0.00 52 1008.0
20260504044516 68 245 0.0 1.7 0.00 0.00 0.00 52 1007.9
20260504044042 69 204 0.0 1.7 0.00 0.00 0.00 51 1008.0
20260504043526 69 212 0.0 1.7 0.00 0.00 0.00 51 1008.0
20260504043031 69 188 0.0 1.7 0.00 0.00 0.00 51 1008.1
20260504042536 69 173 0.0 1.7 0.00 0.00 0.00 51 1008.1
20260504042019 69 194 0.0 1.7 0.00 0.00 0.00 51 1008.2
20260504041522 69 209 0.0 0.9 0.00 0.00 0.00 51 1008.2
20260504041025 69 215 0.0 1.7 0.00 0.00 0.00 51 1008.2
20260504040523 69 202 0.0 1.7 0.00 0.00 0.00 51 1008.2
20260504040033 69 224 0.0 0.9 0.00 0.00 0.00 51 1008.3
20260504035557 69 201 0.0 1.7 0.00 0.00 0.00 51 1008.3
20260504035020 69 185 0.0 4.3 0.00 0.00 0.00 50 1008.3
20260504034546 69 227 0.0 4.3 0.00 0.00 0.00 50 1008.4
20260504034030 69 209 0.0 0.9 0.00 0.00 0.00 50 1008.4
20260504033556 69 217 0.0 1.7 0.00 0.00 0.00 50 1008.4
20260504033019 69 196 0.0 1.7 0.00 0.00 0.00 49 1008.5
20260504032523 69 193 0.0 0.9 0.00 0.00 0.00 49 1008.5
20260504032028 70 232 0.0 0.9 0.00 0.00 0.00 49 1008.5
20260504031534 70 171 0.0 0.9 0.00 0.00 0.00 49 1008.5
20260504031019 70 198 0.0 0.9 0.00 0.00 0.00 49 1008.5
20260504030524 70 192 0.0 0.9 0.00 0.00 0.00 49 1008.5
20260504030029 70 186 0.0 0.9 0.00 0.00 0.00 49 1008.5
20260504025519 70 209 0.0 0.9 0.00 0.00 0.00 49 1008.6
20260504025043 70 198 0.0 0.9 0.00 0.00 0.00 49 1008.5
20260504024528 70 109 0.0 0.9 0.00 0.00 0.00 49 1008.5
20260504024054 70 213 0.0 0.9 0.00 0.00 0.00 49 1008.5
20260504023518 70 213 0.0 0.9 0.00 0.00 0.00 49 1008.5
20260504023023 70 215 0.0 0.9 0.00 0.00 0.00 49 1008.5
20260504022529 70 181 0.0 0.9 0.00 0.00 0.00 49 1008.5
20260504022033 70 192 0.0 0.0 0.00 0.00 0.00 49 1008.5
20260504021518 70 178 0.0 0.0 0.00 0.00 0.00 48 1008.5
20260504021024 70 196 0.0 0.0 0.00 0.00 0.00 48 1008.5
20260504020549 71 190 0.0 0.0 0.00 0.00 0.00 47 1008.5
20260504020053 71 196 0.0 0.0 0.00 0.00 0.00 46 1008.5